Time,TemperatureF,DewpointF,PressureIn,WindDirection,WindDirectionDegrees,WindSpeedMPH,WindSpeedGustMPH,Humidity,HourlyPrecipIn,Conditions,Clouds,dailyrainin,SoftwareType,DateUTC
2013-03-15 00:00:00,22.6,9.2,29.76,NW,309,10.0,10.0,56,0.00,,,0.00,Wunderground v.1.15,2013-03-15 04:00:00,
2013-03-15 00:05:00,22.6,9.6,29.76,North,349,8.0,17.0,57,0.00,,,0.00,Wunderground v.1.15,2013-03-15 04:05:00,
2013-03-15 00:10:00,22.5,9.1,29.76,WNW,292,7.0,17.0,56,0.00,,,0.00,Wunderground v.1.15,2013-03-15 04:10:00,
2013-03-15 00:15:00,22.5,9.5,29.76,West,279,7.0,17.0,57,0.00,,,0.00,Wunderground v.1.15,2013-03-15 04:15:00,
2013-03-15 00:20:00,22.4,9.4,29.76,NW,305,8.0,17.0,57,0.00,,,0.00,Wunderground v.1.15,2013-03-15 04:20:00,
2013-03-15 00:25:00,22.4,9.8,29.76,WNW,288,8.0,17.0,58,0.00,,,0.00,Wunderground v.1.15,2013-03-15 04:25:00,
2013-03-15 00:35:00,22.4,9.8,29.76,West,277,6.0,8.0,58,0.00,,,0.00,Wunderground v.1.15,2013-03-15 04:35:00,
2013-03-15 00:40:00,22.3,9.7,29.76,North,5,7.0,7.0,58,0.00,,,0.00,Wunderground v.1.15,2013-03-15 04:40:00,
2013-03-15 00:45:00,22.1,9.6,29.76,WNW,290,7.0,17.0,58,0.00,,,0.00,Wunderground v.1.15,2013-03-15 04:45:00,
2013-03-15 00:50:00,22.1,9.6,29.76,NE,44,8.0,8.0,58,0.00,,,0.00,Wunderground v.1.15,2013-03-15 04:50:00,
2013-03-15 00:55:00,22.1,9.6,29.76,NNW,339,8.0,17.0,58,0.00,,,0.00,Wunderground v.1.15,2013-03-15 04:55:00,
2013-03-15 01:05:00,22.1,9.9,29.77,NW,304,6.0,17.0,59,0.00,,,0.00,Wunderground v.1.15,2013-03-15 05:05:00,
2013-03-15 01:10:00,22.0,9.8,29.77,NW,323,6.0,6.0,59,0.00,,,0.00,Wunderground v.1.15,2013-03-15 05:10:00,
2013-03-15 01:15:00,22.0,9.8,29.77,North,360,7.0,7.0,59,0.00,,,0.00,Wunderground v.1.15,2013-03-15 05:15:00,
2013-03-15 01:20:00,22.0,9.8,29.77,North,350,9.0,9.0,59,0.00,,,0.00,Wunderground v.1.15,2013-03-15 05:20:00,
2013-03-15 01:25:00,21.9,9.7,29.77,North,349,10.0,10.0,59,0.00,,,0.00,Wunderground v.1.15,2013-03-15 05:25:00,
2013-03-15 01:30:00,21.8,9.7,29.77,NW,307,9.0,17.0,59,0.00,,,0.00,Wunderground v.1.15,2013-03-15 05:30:00,
2013-03-15 01:35:00,21.8,9.7,29.77,NW,314,9.0,17.0,59,0.00,,,0.00,Wunderground v.1.15,2013-03-15 05:35:00,
2013-03-15 01:40:00,21.9,10.1,29.77,North,360,7.0,7.0,60,0.00,,,0.00,Wunderground v.1.15,2013-03-15 05:40:00,
2013-03-15 01:45:00,21.9,9.7,29.77,NNW,334,6.0,17.0,59,0.00,,,0.00,Wunderground v.1.15,2013-03-15 05:45:00,
2013-03-15 01:50:00,21.9,10.1,29.77,NNE,26,7.0,17.0,60,0.00,,,0.00,Wunderground v.1.15,2013-03-15 05:50:00,
2013-03-15 01:55:00,21.9,10.1,29.77,WNW,296,6.0,17.0,60,0.00,,,0.00,Wunderground v.1.15,2013-03-15 05:55:00,
2013-03-15 02:00:00,21.9,10.1,29.77,NW,310,6.0,17.0,60,0.00,,,0.00,Wunderground v.1.15,2013-03-15 06:00:00,
2013-03-15 02:10:00,21.9,9.7,29.77,West,271,8.0,17.0,59,0.00,,,0.00,Wunderground v.1.15,2013-03-15 06:10:00,
2013-03-15 02:15:00,21.8,9.7,29.77,NNE,30,7.0,17.0,59,0.00,,,0.00,Wunderground v.1.15,2013-03-15 06:15:00,
2013-03-15 02:20:00,21.9,9.7,29.77,WNW,300,6.0,6.0,59,0.00,,,0.00,Wunderground v.1.15,2013-03-15 06:20:00,
2013-03-15 02:25:00,21.8,9.7,29.77,NW,313,7.0,7.0,59,0.00,,,0.00,Wunderground v.1.15,2013-03-15 06:25:00,
2013-03-15 02:30:00,21.8,9.7,29.77,North,355,8.0,17.0,59,0.00,,,0.00,Wunderground v.1.15,2013-03-15 06:30:00,
2013-03-15 02:40:00,21.7,9.6,29.77,NNE,15,7.0,7.0,59,0.00,,,0.00,Wunderground v.1.15,2013-03-15 06:40:00,
2013-03-15 02:45:00,21.7,9.2,29.77,WNW,294,6.0,17.0,58,0.00,,,0.00,Wunderground v.1.15,2013-03-15 06:45:00,
2013-03-15 02:50:00,21.6,9.1,29.77,WNW,286,7.0,7.0,58,0.00,,,0.00,Wunderground v.1.15,2013-03-15 06:50:00,
2013-03-15 02:55:00,21.6,9.5,29.77,NNW,341,7.0,13.0,59,0.00,,,0.00,Wunderground v.1.15,2013-03-15 06:55:00,
2013-03-15 03:00:00,21.6,9.1,29.77,WNW,296,7.0,17.0,58,0.00,,,0.00,Wunderground v.1.15,2013-03-15 07:00:00,
2013-03-15 03:05:00,21.5,9.0,29.77,NW,323,8.0,17.0,58,0.00,,,0.00,Wunderground v.1.15,2013-03-15 07:05:00,
2013-03-15 03:15:00,21.5,9.4,29.77,NE,48,8.0,17.0,59,0.00,,,0.00,Wunderground v.1.15,2013-03-15 07:15:00,
2013-03-15 03:20:00,21.4,8.9,29.77,NE,46,7.0,7.0,58,0.00,,,0.00,Wunderground v.1.15,2013-03-15 07:20:00,
2013-03-15 03:25:00,21.3,8.8,29.77,NW,304,7.0,17.0,58,0.00,,,0.00,Wunderground v.1.15,2013-03-15 07:25:00,
2013-03-15 03:30:00,21.3,8.4,29.77,North,350,7.0,7.0,57,0.00,,,0.00,Wunderground v.1.15,2013-03-15 07:30:00,
2013-03-15 03:35:00,21.2,8.7,29.77,North,355,7.0,17.0,58,0.00,,,0.00,Wunderground v.1.15,2013-03-15 07:35:00,
2013-03-15 03:45:00,21.1,8.6,29.77,North,355,5.0,10.0,58,0.00,,,0.00,Wunderground v.1.15,2013-03-15 07:45:00,
2013-03-15 03:50:00,21.1,8.6,29.77,WNW,292,6.0,17.0,58,0.00,,,0.00,Wunderground v.1.15,2013-03-15 07:50:00,
2013-03-15 03:55:00,20.9,8.0,29.77,North,355,7.0,17.0,57,0.00,,,0.00,Wunderground v.1.15,2013-03-15 07:55:00,
2013-03-15 04:00:00,20.8,7.9,29.77,NNW,330,7.0,7.0,57,0.00,,,0.00,Wunderground v.1.15,2013-03-15 08:00:00,
2013-03-15 04:05:00,20.7,7.9,29.77,NW,312,7.0,9.0,57,0.00,,,0.00,Wunderground v.1.15,2013-03-15 08:05:00,
2013-03-15 04:10:00,20.4,7.2,29.77,WNW,282,8.0,17.0,56,0.00,,,0.00,Wunderground v.1.15,2013-03-15 08:10:00,
2013-03-15 04:15:00,20.2,7.0,29.77,WNW,296,9.0,17.0,56,0.00,,,0.00,Wunderground v.1.15,2013-03-15 08:15:00,
2013-03-15 04:20:00,20.0,6.8,29.77,NW,305,10.0,10.0,56,0.00,,,0.00,Wunderground v.1.15,2013-03-15 08:20:00,
2013-03-15 04:25:00,19.9,7.1,29.78,SSW,198,9.0,17.0,57,0.00,,,0.00,Wunderground v.1.15,2013-03-15 08:25:00,
2013-03-15 04:30:00,19.9,7.5,29.78,WNW,294,6.0,6.0,58,0.00,,,0.00,Wunderground v.1.15,2013-03-15 08:30:00,
2013-03-15 04:35:00,19.7,7.3,29.78,NNE,31,6.0,7.0,58,0.00,,,0.00,Wunderground v.1.15,2013-03-15 08:35:00,
2013-03-15 04:40:00,19.6,7.2,29.78,NNE,30,7.0,17.0,58,0.00,,,0.00,Wunderground v.1.15,2013-03-15 08:40:00,
2013-03-15 04:50:00,19.3,6.9,29.79,NW,324,9.0,9.0,58,0.00,,,0.00,Wunderground v.1.15,2013-03-15 08:50:00,
2013-03-15 04:55:00,19.2,7.2,29.79,WNW,292,8.0,17.0,59,0.00,,,0.00,Wunderground v.1.15,2013-03-15 08:55:00,
2013-03-15 05:00:00,19.1,7.5,29.79,NNE,31,7.0,17.0,60,0.00,,,0.00,Wunderground v.1.15,2013-03-15 09:00:00,
2013-03-15 05:05:00,19.0,7.0,29.79,NNW,348,7.0,17.0,59,0.00,,,0.00,Wunderground v.1.15,2013-03-15 09:05:00,
2013-03-15 05:10:00,18.9,6.9,29.79,WNW,301,7.0,17.0,59,0.00,,,0.00,Wunderground v.1.15,2013-03-15 09:10:00,
2013-03-15 05:20:00,18.8,6.8,29.79,NW,318,9.0,9.0,59,0.00,,,0.00,Wunderground v.1.15,2013-03-15 09:20:00,
2013-03-15 05:25:00,18.8,7.2,29.79,NW,317,8.0,17.0,60,0.00,,,0.00,Wunderground v.1.15,2013-03-15 09:25:00,
2013-03-15 05:30:00,18.7,7.1,29.79,NE,42,6.0,6.0,60,0.00,,,0.00,Wunderground v.1.15,2013-03-15 09:30:00,
2013-03-15 05:35:00,18.6,7.0,29.79,North,5,6.0,17.0,60,0.00,,,0.00,Wunderground v.1.15,2013-03-15 09:35:00,
2013-03-15 05:40:00,18.6,7.0,29.80,WNW,302,7.0,17.0,60,0.00,,,0.00,Wunderground v.1.15,2013-03-15 09:40:00,
2013-03-15 05:45:00,18.6,7.0,29.80,NNE,19,8.0,17.0,60,0.00,,,0.00,Wunderground v.1.15,2013-03-15 09:45:00,
2013-03-15 05:55:00,18.5,6.9,29.80,NNE,28,7.0,17.0,60,0.00,,,0.00,Wunderground v.1.15,2013-03-15 09:55:00,
2013-03-15 06:00:00,18.4,6.8,29.80,NW,319,6.0,6.0,60,0.00,,,0.00,Wunderground v.1.15,2013-03-15 10:00:00,
2013-03-15 06:05:00,18.3,7.1,29.80,NW,310,6.0,17.0,61,0.00,,,0.00,Wunderground v.1.15,2013-03-15 10:05:00,
2013-03-15 06:10:00,18.3,6.7,29.80,North,9,7.0,7.0,60,0.00,,,0.00,Wunderground v.1.15,2013-03-15 10:10:00,
2013-03-15 06:15:00,18.2,7.0,29.80,NNW,331,7.0,9.0,61,0.00,,,0.00,Wunderground v.1.15,2013-03-15 10:15:00,
2013-03-15 06:25:00,18.2,7.0,29.80,West,273,6.0,17.0,61,0.00,,,0.00,Wunderground v.1.15,2013-03-15 10:25:00,
2013-03-15 06:30:00,18.1,7.3,29.80,NNW,340,6.0,17.0,62,0.00,,,0.00,Wunderground v.1.15,2013-03-15 10:30:00,
2013-03-15 06:35:00,18.1,6.9,29.80,North,5,7.0,17.0,61,0.00,,,0.00,Wunderground v.1.15,2013-03-15 10:35:00,
2013-03-15 06:40:00,18.1,7.3,29.80,NE,34,6.0,17.0,62,0.00,,,0.00,Wunderground v.1.15,2013-03-15 10:40:00,
2013-03-15 06:45:00,18.1,6.9,29.81,NNW,328,6.0,17.0,61,0.00,,,0.00,Wunderground v.1.15,2013-03-15 10:45:00,
2013-03-15 06:50:00,18.0,7.2,29.81,NNW,337,6.0,6.0,62,0.00,,,0.00,Wunderground v.1.15,2013-03-15 10:50:00,
2013-03-15 07:00:00,17.9,7.1,29.81,SW,236,4.0,17.0,62,0.00,,,0.00,Wunderground v.1.15,2013-03-15 11:00:00,
2013-03-15 07:05:00,17.9,7.1,29.81,NNW,339,5.0,17.0,62,0.00,,,0.00,Wunderground v.1.15,2013-03-15 11:05:00,
2013-03-15 07:10:00,17.9,7.1,29.81,West,279,5.0,5.0,62,0.00,,,0.00,Wunderground v.1.15,2013-03-15 11:10:00,
2013-03-15 07:15:00,17.9,7.1,29.81,North,355,5.0,6.0,62,0.00,,,0.00,Wunderground v.1.15,2013-03-15 11:15:00,
2013-03-15 07:20:00,18.0,7.2,29.81,North,355,6.0,17.0,62,0.00,,,0.00,Wunderground v.1.15,2013-03-15 11:20:00,
2013-03-15 07:30:00,18.0,7.2,29.82,NNE,19,8.0,8.0,62,0.00,,,0.00,Wunderground v.1.15,2013-03-15 11:30:00,
2013-03-15 07:35:00,18.1,7.3,29.82,NNW,344,7.0,17.0,62,0.00,,,0.00,Wunderground v.1.15,2013-03-15 11:35:00,
2013-03-15 07:40:00,18.2,7.3,29.82,WNW,289,6.0,17.0,62,0.00,,,0.00,Wunderground v.1.15,2013-03-15 11:40:00,
2013-03-15 07:45:00,18.4,7.2,29.82,NNW,331,7.0,17.0,61,0.00,,,0.00,Wunderground v.1.15,2013-03-15 11:45:00,
2013-03-15 07:50:00,18.6,7.4,29.81,North,355,7.0,17.0,61,0.00,,,0.00,Wunderground v.1.15,2013-03-15 11:50:00,
2013-03-15 07:55:00,18.6,7.0,29.81,NNW,348,9.0,17.0,60,0.00,,,0.00,Wunderground v.1.15,2013-03-15 11:55:00,
2013-03-15 08:00:00,18.9,7.3,29.81,North,11,8.0,8.0,60,0.00,,,0.00,Wunderground v.1.15,2013-03-15 12:00:00,
2013-03-15 08:05:00,19.1,7.1,29.81,WNW,297,6.0,17.0,59,0.00,,,0.00,Wunderground v.1.15,2013-03-15 12:05:00,
2013-03-15 08:10:00,19.2,7.6,29.81,NNE,31,6.0,17.0,60,0.00,,,0.00,Wunderground v.1.15,2013-03-15 12:10:00,
2013-03-15 08:15:00,19.2,7.2,29.81,WNW,301,8.0,17.0,59,0.00,,,0.00,Wunderground v.1.15,2013-03-15 12:15:00,
2013-03-15 08:20:00,19.1,7.1,29.81,NW,317,9.0,9.0,59,0.00,,,0.00,Wunderground v.1.15,2013-03-15 12:20:00,
2013-03-15 08:25:00,19.5,7.5,29.81,NW,319,9.0,11.0,59,0.00,,,0.00,Wunderground v.1.15,2013-03-15 12:25:00,
2013-03-15 08:35:00,19.8,7.4,29.81,NE,40,8.0,17.0,58,0.00,,,0.00,Wunderground v.1.15,2013-03-15 12:35:00,
2013-03-15 08:40:00,19.9,7.1,29.81,NW,321,7.0,17.0,57,0.00,,,0.00,Wunderground v.1.15,2013-03-15 12:40:00,
2013-03-15 08:45:00,20.1,7.7,29.82,NW,306,8.0,17.0,58,0.00,,,0.00,Wunderground v.1.15,2013-03-15 12:45:00,
2013-03-15 08:50:00,20.1,7.3,29.82,NW,313,8.0,20.0,57,0.00,,,0.00,Wunderground v.1.15,2013-03-15 12:50:00,
2013-03-15 08:55:00,20.3,7.1,29.82,SW,236,9.0,20.0,56,0.00,,,0.00,Wunderground v.1.15,2013-03-15 12:55:00,
2013-03-15 09:05:00,20.6,7.4,29.82,WNW,289,9.0,17.0,56,0.00,,,0.00,Wunderground v.1.15,2013-03-15 13:05:00,
2013-03-15 09:10:00,20.8,7.9,29.82,NW,313,9.0,17.0,57,0.00,,,0.00,Wunderground v.1.15,2013-03-15 13:10:00,
2013-03-15 09:15:00,20.9,7.2,29.82,ENE,61,11.0,17.0,55,0.00,,,0.00,Wunderground v.1.15,2013-03-15 13:15:00,
2013-03-15 09:20:00,21.2,7.5,29.82,NNE,20,9.0,9.0,55,0.00,,,0.00,Wunderground v.1.15,2013-03-15 13:20:00,
2013-03-15 09:25:00,21.4,7.3,29.82,NW,319,8.0,10.0,54,0.00,,,0.00,Wunderground v.1.15,2013-03-15 13:25:00,
2013-03-15 09:30:00,21.5,7.4,29.81,West,280,8.0,17.0,54,0.00,,,0.00,Wunderground v.1.15,2013-03-15 13:30:00,
2013-03-15 09:40:00,21.9,6.9,29.81,West,271,8.0,8.0,52,0.00,,,0.00,Wunderground v.1.15,2013-03-15 13:40:00,
2013-03-15 09:45:00,21.7,7.2,29.81,WNW,301,9.0,15.0,53,0.00,,,0.00,Wunderground v.1.15,2013-03-15 13:45:00,
2013-03-15 09:50:00,22.2,8.1,29.81,North,350,8.0,8.0,54,0.00,,,0.00,Wunderground v.1.15,2013-03-15 13:50:00,
2013-03-15 09:55:00,22.3,7.3,29.81,North,355,8.0,10.0,52,0.00,,,0.00,Wunderground v.1.15,2013-03-15 13:55:00,
2013-03-15 10:00:00,22.4,7.0,29.80,WNW,295,9.0,9.0,51,0.00,,,0.00,Wunderground v.1.15,2013-03-15 14:00:00,
2013-03-15 10:05:00,23.1,8.5,29.80,NNE,15,9.0,17.0,53,0.00,,,0.00,Wunderground v.1.15,2013-03-15 14:05:00,
2013-03-15 10:10:00,23.1,7.6,29.80,NW,307,7.0,7.0,51,0.00,,,0.00,Wunderground v.1.15,2013-03-15 14:10:00,
2013-03-15 10:15:00,23.3,7.8,29.80,SW,225,6.0,17.0,51,0.00,,,0.00,Wunderground v.1.15,2013-03-15 14:15:00,
2013-03-15 10:20:00,23.6,8.1,29.80,NNE,29,6.0,17.0,51,0.00,,,0.00,Wunderground v.1.15,2013-03-15 14:20:00,
2013-03-15 10:25:00,23.8,7.8,29.80,NE,44,7.0,17.0,50,0.00,,,0.00,Wunderground v.1.15,2013-03-15 14:25:00,
2013-03-15 10:30:00,23.9,8.4,29.80,NW,307,8.0,17.0,51,0.00,,,0.00,Wunderground v.1.15,2013-03-15 14:30:00,
2013-03-15 10:40:00,24.1,7.7,29.79,NNE,19,8.0,17.0,49,0.00,,,0.00,Wunderground v.1.15,2013-03-15 14:40:00,
2013-03-15 10:45:00,24.2,8.2,29.79,WNW,299,9.0,17.0,50,0.00,,,0.00,Wunderground v.1.15,2013-03-15 14:45:00,
2013-03-15 10:50:00,24.8,8.8,29.79,WNW,298,9.0,17.0,50,0.00,,,0.00,Wunderground v.1.15,2013-03-15 14:50:00,
2013-03-15 10:55:00,24.4,7.9,29.79,NW,325,9.0,17.0,49,0.00,,,0.00,Wunderground v.1.15,2013-03-15 14:55:00,
2013-03-15 11:00:00,24.7,8.7,29.78,West,261,9.0,9.0,50,0.00,,,0.00,Wunderground v.1.15,2013-03-15 15:00:00,
2013-03-15 11:05:00,24.8,8.3,29.79,WNW,286,10.0,10.0,49,0.00,,,0.00,Wunderground v.1.15,2013-03-15 15:05:00,
2013-03-15 11:15:00,25.7,9.6,29.78,NNW,344,9.0,17.0,50,0.00,,,0.00,Wunderground v.1.15,2013-03-15 15:15:00,
2013-03-15 11:20:00,26.0,9.4,29.77,NE,51,7.0,7.0,49,0.00,,,0.00,Wunderground v.1.15,2013-03-15 15:20:00,
2013-03-15 11:25:00,26.1,8.6,29.77,NW,321,7.0,17.0,47,0.00,,,0.00,Wunderground v.1.15,2013-03-15 15:25:00,
2013-03-15 11:30:00,26.1,8.6,29.77,NW,321,7.0,7.0,47,0.00,,,0.00,Wunderground v.1.15,2013-03-15 15:30:00,
2013-03-15 11:35:00,26.1,9.1,29.77,NNE,18,8.0,8.0,48,0.00,,,0.00,Wunderground v.1.15,2013-03-15 15:35:00,
2013-03-15 11:45:00,27.2,9.6,29.77,NW,309,5.0,17.0,47,0.00,,,0.00,Wunderground v.1.15,2013-03-15 15:45:00,
2013-03-15 11:50:00,26.7,9.1,29.76,NW,321,7.0,17.0,47,0.00,,,0.00,Wunderground v.1.15,2013-03-15 15:50:00,
2013-03-15 11:55:00,26.9,9.8,29.76,West,263,7.0,17.0,48,0.00,,,0.00,Wunderground v.1.15,2013-03-15 15:55:00,
2013-03-15 12:00:00,27.6,10.4,29.76,NW,319,6.0,17.0,48,0.00,,,0.00,Wunderground v.1.15,2013-03-15 16:00:00,
2013-03-15 12:05:00,27.8,10.6,29.76,NNW,329,7.0,17.0,48,0.00,,,0.00,Wunderground v.1.15,2013-03-15 16:05:00,
2013-03-15 12:10:00,27.4,9.3,29.76,WSW,246,8.0,8.0,46,0.00,,,0.00,Wunderground v.1.15,2013-03-15 16:10:00,
2013-03-15 12:20:00,27.5,9.9,29.76,SSW,202,7.0,17.0,47,0.00,,,0.00,Wunderground v.1.15,2013-03-15 16:20:00,
2013-03-15 12:25:00,27.9,9.8,29.75,WSW,258,8.0,17.0,46,0.00,,,0.00,Wunderground v.1.15,2013-03-15 16:25:00,
2013-03-15 12:30:00,28.5,9.8,29.75,NW,320,8.0,8.0,45,0.00,,,0.00,Wunderground v.1.15,2013-03-15 16:30:00,
2013-03-15 12:35:00,28.6,9.9,29.75,WSW,246,9.0,9.0,45,0.00,,,0.00,Wunderground v.1.15,2013-03-15 16:35:00,
2013-03-15 12:40:00,28.6,10.4,29.75,West,261,9.0,17.0,46,0.00,,,0.00,Wunderground v.1.15,2013-03-15 16:40:00,
2013-03-15 12:50:00,29.3,10.1,29.74,WNW,288,10.0,10.0,44,0.00,,,0.00,Wunderground v.1.15,2013-03-15 16:50:00,
2013-03-15 12:55:00,29.6,10.8,29.74,North,355,7.0,17.0,45,0.00,,,0.00,Wunderground v.1.15,2013-03-15 16:55:00,
2013-03-15 13:00:00,30.3,12.0,29.73,WNW,301,7.0,17.0,46,0.00,,,0.00,Wunderground v.1.15,2013-03-15 17:00:00,
2013-03-15 13:05:00,30.5,11.7,29.73,West,280,6.0,17.0,45,0.00,,,0.00,Wunderground v.1.15,2013-03-15 17:05:00,
2013-03-15 13:10:00,31.1,11.7,29.73,NE,40,5.0,17.0,44,0.00,,,0.00,Wunderground v.1.15,2013-03-15 17:10:00,
2013-03-15 13:15:00,30.9,10.5,29.73,NNW,332,5.0,17.0,42,0.00,,,0.00,Wunderground v.1.15,2013-03-15 17:15:00,
2013-03-15 13:25:00,31.5,10.5,29.72,West,277,7.0,17.0,41,0.00,,,0.00,Wunderground v.1.15,2013-03-15 17:25:00,
2013-03-15 13:30:00,31.7,10.7,29.72,WNW,302,7.0,17.0,41,0.00,,,0.00,Wunderground v.1.15,2013-03-15 17:30:00,
2013-03-15 13:35:00,31.3,11.4,29.72,West,279,7.0,17.0,43,0.00,,,0.00,Wunderground v.1.15,2013-03-15 17:35:00,
2013-03-15 13:40:00,31.6,10.6,29.72,West,263,7.0,17.0,41,0.00,,,0.00,Wunderground v.1.15,2013-03-15 17:40:00,
2013-03-15 13:45:00,31.6,10.6,29.72,West,273,7.0,17.0,41,0.00,,,0.00,Wunderground v.1.15,2013-03-15 17:45:00,
2013-03-15 13:50:00,31.7,10.7,29.71,NW,321,8.0,17.0,41,0.00,,,0.00,Wunderground v.1.15,2013-03-15 17:50:00,
2013-03-15 13:55:00,31.7,10.7,29.71,West,267,9.0,17.0,41,0.00,,,0.00,Wunderground v.1.15,2013-03-15 17:55:00,
2013-03-15 14:00:00,32.1,10.5,29.70,NW,309,7.0,17.0,40,0.00,,,0.00,Wunderground v.1.15,2013-03-15 18:00:00,
2013-03-15 14:10:00,32.2,11.6,29.69,SW,236,7.0,7.0,42,0.00,,,0.00,Wunderground v.1.15,2013-03-15 18:10:00,
2013-03-15 14:15:00,32.6,11.5,29.69,WNW,302,6.0,8.0,41,0.00,,,0.00,Wunderground v.1.15,2013-03-15 18:15:00,
2013-03-15 14:20:00,32.4,11.3,29.69,WSW,256,6.0,17.0,41,0.00,,,0.00,Wunderground v.1.15,2013-03-15 18:20:00,
2013-03-15 14:30:00,32.9,11.2,29.69,SSW,211,8.0,8.0,40,0.00,,,0.00,Wunderground v.1.15,2013-03-15 18:30:00,
2013-03-15 14:35:00,32.9,10.6,29.69,NW,315,6.0,17.0,39,0.00,,,0.00,Wunderground v.1.15,2013-03-15 18:35:00,
2013-03-15 14:40:00,33.1,10.8,29.68,WNW,292,5.0,5.0,39,0.00,,,0.00,Wunderground v.1.15,2013-03-15 18:40:00,
2013-03-15 14:45:00,33.0,10.1,29.68,West,273,6.0,6.0,38,0.00,,,0.00,Wunderground v.1.15,2013-03-15 18:45:00,
2013-03-15 14:50:00,33.2,10.3,29.68,WSW,246,7.0,17.0,38,0.00,,,0.00,Wunderground v.1.15,2013-03-15 18:50:00,
2013-03-15 14:55:00,33.5,10.0,29.68,NW,315,8.0,17.0,37,0.00,,,0.00,Wunderground v.1.15,2013-03-15 18:55:00,
2013-03-15 15:00:00,33.4,9.3,29.67,West,260,8.0,8.0,36,0.00,,,0.00,Wunderground v.1.15,2013-03-15 19:00:00,
2013-03-15 15:05:00,33.8,9.6,29.67,West,270,7.0,11.0,36,0.00,,,0.00,Wunderground v.1.15,2013-03-15 19:05:00,
2013-03-15 15:10:00,33.4,8.6,29.67,West,267,9.0,17.0,35,0.00,,,0.00,Wunderground v.1.15,2013-03-15 19:10:00,
2013-03-15 15:15:00,33.9,9.7,29.67,WNW,292,9.0,17.0,36,0.00,,,0.00,Wunderground v.1.15,2013-03-15 19:15:00,
2013-03-15 15:20:00,34.4,8.9,29.67,West,272,7.0,17.0,34,0.00,,,0.00,Wunderground v.1.15,2013-03-15 19:20:00,
2013-03-15 15:30:00,34.5,8.3,29.66,WSW,252,6.0,17.0,33,0.00,,,0.00,Wunderground v.1.15,2013-03-15 19:30:00,
2013-03-15 15:35:00,34.0,7.9,29.66,WNW,297,7.0,17.0,33,0.00,,,0.00,Wunderground v.1.15,2013-03-15 19:35:00,
2013-03-15 15:40:00,34.2,8.7,29.66,WSW,253,9.0,17.0,34,0.00,,,0.00,Wunderground v.1.15,2013-03-15 19:40:00,
2013-03-15 15:45:00,34.4,8.9,29.66,West,263,9.0,17.0,34,0.00,,,0.00,Wunderground v.1.15,2013-03-15 19:45:00,
2013-03-15 15:50:00,34.8,9.2,29.66,WNW,298,7.0,7.0,34,0.00,,,0.00,Wunderground v.1.15,2013-03-15 19:50:00,
2013-03-15 15:55:00,35.0,9.4,29.66,WNW,284,5.0,17.0,34,0.00,,,0.00,Wunderground v.1.15,2013-03-15 19:55:00,
2013-03-15 16:05:00,35.7,11.3,29.66,WSW,238,5.0,17.0,36,0.00,,,0.00,Wunderground v.1.15,2013-03-15 20:05:00,
2013-03-15 16:10:00,35.9,11.5,29.65,SW,224,5.0,5.0,36,0.00,,,0.00,Wunderground v.1.15,2013-03-15 20:10:00,
2013-03-15 16:15:00,35.9,12.7,29.65,WSW,243,5.0,8.0,38,0.00,,,0.00,Wunderground v.1.15,2013-03-15 20:15:00,
2013-03-15 16:20:00,34.8,10.5,29.65,WSW,248,7.0,17.0,36,0.00,,,0.00,Wunderground v.1.15,2013-03-15 20:20:00,
2013-03-15 16:25:00,34.1,10.5,29.65,WSW,242,9.0,17.0,37,0.00,,,0.00,Wunderground v.1.15,2013-03-15 20:25:00,
2013-03-15 16:35:00,34.2,11.8,29.65,South,180,8.0,17.0,39,0.00,,,0.00,Wunderground v.1.15,2013-03-15 20:35:00,
2013-03-15 16:40:00,33.9,15.8,29.65,SW,219,8.0,17.0,47,0.00,,,0.00,Wunderground v.1.15,2013-03-15 20:40:00,
2013-03-15 16:45:00,34.1,15.5,29.65,SW,214,8.0,17.0,46,0.00,,,0.00,Wunderground v.1.15,2013-03-15 20:45:00,
2013-03-15 16:50:00,34.4,15.7,29.65,WSW,243,7.0,7.0,46,0.00,,,0.00,Wunderground v.1.15,2013-03-15 20:50:00,
2013-03-15 16:55:00,33.9,15.3,29.65,WSW,255,8.0,9.0,46,0.00,,,0.00,Wunderground v.1.15,2013-03-15 20:55:00,
2013-03-15 17:00:00,34.0,15.9,29.65,SW,236,8.0,17.0,47,0.00,,,0.00,Wunderground v.1.15,2013-03-15 21:00:00,
2013-03-15 17:10:00,33.4,12.7,29.65,WSW,243,9.0,9.0,42,0.00,,,0.00,Wunderground v.1.15,2013-03-15 21:10:00,
2013-03-15 17:15:00,33.8,13.1,29.65,WNW,294,7.0,17.0,42,0.00,,,0.00,Wunderground v.1.15,2013-03-15 21:15:00,
2013-03-15 17:20:00,33.9,13.2,29.65,SW,231,4.0,17.0,42,0.00,,,0.00,Wunderground v.1.15,2013-03-15 21:20:00,
2013-03-15 17:25:00,33.5,13.4,29.65,West,270,4.0,17.0,43,0.00,,,0.00,Wunderground v.1.15,2013-03-15 21:25:00,
2013-03-15 17:30:00,33.3,13.2,29.65,West,261,5.0,17.0,43,0.00,,,0.00,Wunderground v.1.15,2013-03-15 21:30:00,
2013-03-15 17:35:00,32.8,14.8,29.65,SSW,211,6.0,17.0,47,0.00,,,0.00,Wunderground v.1.15,2013-03-15 21:35:00,
2013-03-15 17:40:00,32.4,15.8,29.65,SW,227,7.0,17.0,50,0.00,,,0.00,Wunderground v.1.15,2013-03-15 21:40:00,
2013-03-15 17:45:00,31.9,16.2,29.65,SW,215,7.0,17.0,52,0.00,,,0.00,Wunderground v.1.15,2013-03-15 21:45:00,
2013-03-15 17:50:00,32.0,16.8,29.65,SSW,209,6.0,6.0,53,0.00,,,0.00,Wunderground v.1.15,2013-03-15 21:50:00,
2013-03-15 17:55:00,31.9,17.1,29.65,SW,225,5.0,17.0,54,0.00,,,0.00,Wunderground v.1.15,2013-03-15 21:55:00,
2013-03-15 18:00:00,32.0,16.8,29.65,South,186,5.0,17.0,53,0.00,,,0.00,Wunderground v.1.15,2013-03-15 22:00:00,
2013-03-15 18:10:00,31.5,17.2,29.65,SW,225,6.0,6.0,55,0.00,,,0.00,Wunderground v.1.15,2013-03-15 22:10:00,
2013-03-15 18:15:00,31.5,17.2,29.65,SSW,197,5.0,17.0,55,0.00,,,0.00,Wunderground v.1.15,2013-03-15 22:15:00,
2013-03-15 18:20:00,31.4,17.5,29.65,SW,215,3.0,3.0,56,0.00,,,0.00,Wunderground v.1.15,2013-03-15 22:20:00,
2013-03-15 18:25:00,31.4,17.5,29.65,South,177,1.0,17.0,56,0.00,,,0.00,Wunderground v.1.15,2013-03-15 22:25:00,
2013-03-15 18:30:00,31.3,17.8,29.65,South,178,1.0,17.0,57,0.00,,,0.00,Wunderground v.1.15,2013-03-15 22:30:00,
2013-03-15 18:35:00,31.3,17.8,29.65,South,178,0.0,17.0,57,0.00,,,0.00,Wunderground v.1.15,2013-03-15 22:35:00,
2013-03-15 18:45:00,31.3,18.2,29.65,South,178,0.0,17.0,58,0.00,,,0.00,Wunderground v.1.15,2013-03-15 22:45:00,
2013-03-15 18:50:00,31.3,19.4,29.65,South,178,0.0,17.0,61,0.00,,,0.00,Wunderground v.1.15,2013-03-15 22:50:00,
2013-03-15 18:55:00,31.1,19.2,29.65,South,178,0.0,17.0,61,0.00,,,0.00,Wunderground v.1.15,2013-03-15 22:55:00,
2013-03-15 19:00:00,31.0,19.1,29.65,South,178,0.0,17.0,61,0.00,,,0.00,Wunderground v.1.15,2013-03-15 23:00:00,
2013-03-15 19:05:00,31.0,19.1,29.65,South,178,0.0,17.0,61,0.00,,,0.00,Wunderground v.1.15,2013-03-15 23:05:00,
2013-03-15 19:15:00,31.1,19.6,29.65,South,178,0.0,17.0,62,0.00,,,0.00,Wunderground v.1.15,2013-03-15 23:15:00,
2013-03-15 19:20:00,31.0,19.1,29.65,South,177,0.0,17.0,61,0.00,,,0.00,Wunderground v.1.15,2013-03-15 23:20:00,
2013-03-15 19:25:00,31.1,19.6,29.65,South,178,0.0,17.0,62,0.00,,,0.00,Wunderground v.1.15,2013-03-15 23:25:00,
2013-03-15 19:30:00,31.1,19.6,29.65,South,178,0.0,17.0,62,0.00,,,0.00,Wunderground v.1.15,2013-03-15 23:30:00,
2013-03-15 19:35:00,31.1,20.0,29.65,South,178,0.0,17.0,63,0.00,,,0.00,Wunderground v.1.15,2013-03-15 23:35:00,
2013-03-15 19:40:00,31.0,19.9,29.65,South,178,0.0,17.0,63,0.00,,,0.00,Wunderground v.1.15,2013-03-15 23:40:00,
2013-03-15 19:50:00,30.8,20.0,29.65,South,178,0.0,17.0,64,0.00,,,0.00,Wunderground v.1.15,2013-03-15 23:50:00,
2013-03-15 19:55:00,30.6,20.6,29.65,South,178,0.0,17.0,66,0.00,,,0.00,Wunderground v.1.15,2013-03-15 23:55:00,
2013-03-15 20:00:00,30.5,20.1,29.65,South,178,0.0,17.0,65,0.00,,,0.00,Wunderground v.1.15,2013-03-16 00:00:00,
2013-03-15 20:05:00,30.5,20.1,29.65,South,178,0.0,17.0,65,0.00,,,0.00,Wunderground v.1.15,2013-03-16 00:05:00,
2013-03-15 20:10:00,30.5,20.1,29.65,South,178,0.0,17.0,65,0.00,,,0.00,Wunderground v.1.15,2013-03-16 00:10:00,
2013-03-15 20:20:00,30.3,20.6,29.65,South,178,0.0,17.0,67,0.00,,,0.00,Wunderground v.1.15,2013-03-16 00:20:00,
2013-03-15 20:25:00,30.3,20.3,29.65,South,178,0.0,17.0,66,0.00,,,0.00,Wunderground v.1.15,2013-03-16 00:25:00,
2013-03-15 20:30:00,30.1,20.5,29.65,South,178,0.0,17.0,67,0.00,,,0.00,Wunderground v.1.15,2013-03-16 00:30:00,
2013-03-15 20:35:00,30.0,20.4,29.65,South,178,0.0,17.0,67,0.00,,,0.00,Wunderground v.1.15,2013-03-16 00:35:00,
2013-03-15 20:40:00,30.0,21.1,29.65,South,178,0.0,17.0,69,0.00,,,0.00,Wunderground v.1.15,2013-03-16 00:40:00,
2013-03-15 20:45:00,29.8,20.9,29.65,South,178,0.0,17.0,69,0.00,,,0.00,Wunderground v.1.15,2013-03-16 00:45:00,
2013-03-15 20:50:00,29.5,20.6,29.65,South,178,0.0,17.0,69,0.00,,,0.00,Wunderground v.1.15,2013-03-16 00:50:00,
2013-03-15 20:55:00,29.3,20.7,29.65,South,178,0.0,17.0,70,0.00,,,0.00,Wunderground v.1.15,2013-03-16 00:55:00,
2013-03-15 21:00:00,29.0,20.8,29.65,South,178,0.0,17.0,71,0.00,,,0.00,Wunderground v.1.15,2013-03-16 01:00:00,
2013-03-15 21:05:00,28.8,20.9,29.64,South,178,0.0,17.0,72,0.00,,,0.00,Wunderground v.1.15,2013-03-16 01:05:00,
2013-03-15 21:10:00,28.7,20.8,29.64,South,178,0.0,17.0,72,0.00,,,0.00,Wunderground v.1.15,2013-03-16 01:10:00,
2013-03-15 21:15:00,28.5,20.6,29.64,South,178,0.0,17.0,72,0.00,,,0.00,Wunderground v.1.15,2013-03-16 01:15:00,
2013-03-15 21:25:00,28.5,20.9,29.64,South,178,0.0,17.0,73,0.00,,,0.00,Wunderground v.1.15,2013-03-16 01:25:00,
2013-03-15 21:30:00,28.4,20.8,29.64,South,178,0.0,17.0,73,0.00,,,0.00,Wunderground v.1.15,2013-03-16 01:30:00,
2013-03-15 21:35:00,28.4,20.8,29.64,South,178,0.0,17.0,73,0.00,,,0.00,Wunderground v.1.15,2013-03-16 01:35:00,
2013-03-15 21:40:00,28.4,21.2,29.64,South,178,0.0,17.0,74,0.00,,,0.00,Wunderground v.1.15,2013-03-16 01:40:00,
2013-03-15 21:45:00,28.4,20.8,29.64,South,178,0.0,17.0,73,0.00,,,0.00,Wunderground v.1.15,2013-03-16 01:45:00,
2013-03-15 21:55:00,28.3,20.7,29.64,South,178,0.0,17.0,73,0.00,,,0.00,Wunderground v.1.15,2013-03-16 01:55:00,
2013-03-15 22:00:00,28.1,20.9,29.64,South,178,0.0,17.0,74,0.00,,,0.00,Wunderground v.1.15,2013-03-16 02:00:00,
2013-03-15 22:05:00,27.9,20.7,29.64,South,178,0.0,17.0,74,0.00,,,0.00,Wunderground v.1.15,2013-03-16 02:05:00,
2013-03-15 22:10:00,27.9,21.0,29.64,South,177,0.0,17.0,75,0.00,,,0.00,Wunderground v.1.15,2013-03-16 02:10:00,
2013-03-15 22:15:00,27.8,20.9,29.64,South,178,0.0,17.0,75,0.00,,,0.00,Wunderground v.1.15,2013-03-16 02:15:00,
2013-03-15 22:20:00,27.6,21.0,29.64,South,178,0.0,17.0,76,0.00,,,0.00,Wunderground v.1.15,2013-03-16 02:20:00,
2013-03-15 22:30:00,27.0,20.7,29.64,South,178,0.0,17.0,77,0.00,,,0.00,Wunderground v.1.15,2013-03-16 02:30:00,
2013-03-15 22:35:00,26.9,20.7,29.64,South,178,0.0,17.0,77,0.00,,,0.00,Wunderground v.1.15,2013-03-16 02:35:00,
2013-03-15 22:40:00,26.5,20.3,29.64,South,178,0.0,17.0,77,0.00,,,0.00,Wunderground v.1.15,2013-03-16 02:40:00,
2013-03-15 22:45:00,26.4,20.5,29.64,South,178,0.0,17.0,78,0.00,,,0.00,Wunderground v.1.15,2013-03-16 02:45:00,
2013-03-15 22:50:00,26.3,20.4,29.64,South,177,0.0,17.0,78,0.00,,,0.00,Wunderground v.1.15,2013-03-16 02:50:00,
2013-03-15 23:00:00,25.8,20.2,29.64,South,178,0.0,17.0,79,0.00,,,0.00,Wunderground v.1.15,2013-03-16 03:00:00,
2013-03-15 23:05:00,25.7,20.4,29.64,South,178,0.0,17.0,80,0.00,,,0.00,Wunderground v.1.15,2013-03-16 03:05:00,
2013-03-15 23:10:00,25.7,20.4,29.64,South,178,0.0,17.0,80,0.00,,,0.00,Wunderground v.1.15,2013-03-16 03:10:00,
2013-03-15 23:15:00,25.7,20.4,29.64,South,178,0.0,17.0,80,0.00,,,0.00,Wunderground v.1.15,2013-03-16 03:15:00,
2013-03-15 23:20:00,25.6,20.3,29.65,South,177,0.0,17.0,80,0.00,,,0.00,Wunderground v.1.15,2013-03-16 03:20:00,
2013-03-15 23:25:00,25.5,20.5,29.65,South,178,0.0,17.0,81,0.00,,,0.00,Wunderground v.1.15,2013-03-16 03:25:00,
2013-03-15 23:30:00,25.4,20.4,29.65,South,178,0.0,17.0,81,0.00,,,0.00,Wunderground v.1.15,2013-03-16 03:30:00,
2013-03-15 23:35:00,25.4,20.4,29.64,South,178,0.0,17.0,81,0.00,,,0.00,Wunderground v.1.15,2013-03-16 03:35:00,
2013-03-15 23:40:00,25.4,20.4,29.64,South,177,0.0,17.0,81,0.00,,,0.00,Wunderground v.1.15,2013-03-16 03:40:00,
2013-03-15 23:45:00,25.2,20.5,29.64,South,178,0.0,17.0,82,0.00,,,0.00,Wunderground v.1.15,2013-03-16 03:45:00,
2013-03-15 23:50:00,24.9,20.2,29.64,South,178,0.0,17.0,82,0.00,,,0.00,Wunderground v.1.15,2013-03-16 03:50:00,
2013-03-15 23:55:00,24.7,20.3,29.64,South,178,0.0,17.0,83,0.00,,,0.00,Wunderground v.1.15,2013-03-16 03:55:00,